Vorticity
nan nan nan nan nan nan nan nan nan nan nan nan nan nan nan nan nan nan nan nan nan nan nan nan nan nan nan nan nan nan nan nan nan nan nan nan nan nan nan nan nan nan nan nan nan nan nan nan nan
nan 9 8 8 4 0 9 11 5 14 11 8 8 4 4 5 5 6 9 11 6 1 11 9 5 5 6 5 6 5 5 5 5 5 5 5 5 5 5 5 4 5 5 5 4 2 2 1 nan
nan 8 5 9 1 -0 6 4 16 9 4 8 4 6 9 4 5 2 12 14 7 18 12 10 7 3 6 5 6 6 5 6 6 6 6 6 5 5 5 5 5 5 5 4 3 2 2 2 nan
nan 5 7 7 5 4 5 3 8 9 2 18 16 1 5 5 6 6 8 14 10 10 7 16 9 6 5 6 6 6 5 6 6 6 7 7 7 6 5 5 5 5 5 3 2 2 2 3 nan
nan 8 7 2 7 14 9 5 5 13 7 -1 9 7 4 9 8 6 11 8 3 9 7 14 11 9 7 6 6 5 6 6 7 6 6 7 8 6 6 6 6 5 5 3 2 2 3 4 nan
nan 8 3 4 6 11 6 8 3 -1 9 0 6 10 3 8 8 5 14 10 10 8 12 15 12 4 3 5 7 6 7 7 6 6 6 6 7 7 8 8 6 5 4 4 3 3 3 4 nan
nan 5 4 3 5 11 6 9 3 6 7 11 5 1 6 8 5 9 14 11 9 7 9 11 15 4 5 4 3 8 7 7 6 7 6 6 7 8 7 7 6 5 4 4 4 3 4 4 nan
nan 2 4 5 13 12 10 8 3 11 7 11 7 9 10 5 5 10 14 11 8 6 5 5 10 12 9 7 6 5 8 7 6 6 6 4 4 4 5 6 6 5 4 4 4 5 3 3 nan
nan 6 7 6 14 13 13 5 8 7 9 3 8 12 16 11 6 8 8 8 8 7 6 7 6 8 8 8 3 4 5 1 0 1 1 0 2 3 6 7 7 6 5 5 5 4 3 2 nan
nan 6 5 7 9 13 9 10 5 -5 6 14 9 10 8 7 10 9 7 9 7 5 6 9 5 7 3 3 2 2 1 -0 2 2 1 5 7 6 5 4 3 4 6 3 3 4 3 3 nan
nan 4 5 8 8 5 6 12 11 6 14 14 8 7 7 5 6 6 7 7 8 11 13 11 8 7 6 2 4 5 4 6 6 6 8 7 6 6 5 4 3 4 4 5 5 4 5 8 nan
nan 6 7 7 3 5 16 12 8 8 12 15 16 9 7 7 7 6 7 7 8 10 13 10 9 6 6 7 8 8 8 10 7 8 8 4 6 7 6 6 7 6 6 7 6 7 8 7 nan
nan 7 4 7 6 11 5 8 6 2 7 6 8 9 11 7 7 7 10 8 6 7 10 9 9 9 8 9 8 8 8 7 7 7 8 7 8 6 6 7 7 7 6 7 8 7 6 5 nan
nan 6 8 6 11 9 7 0 5 6 9 5 5 7 9 7 6 4 6 8 8 5 7 9 9 11 11 10 8 6 9 7 8 8 9 7 8 6 7 7 7 7 7 8 8 7 7 6 nan
nan 11 9 9 13 8 4 1 12 14 7 8 6 7 8 6 5 7 7 7 6 6 8 7 8 7 8 9 9 8 6 7 7 8 5 6 5 7 8 6 8 8 10 8 7 7 8 8 nan
nan 9 8 13 10 5 6 4 8 12 7 11 5 7 7 5 9 7 7 7 6 7 5 6 7 7 5 5 7 6 5 7 6 8 6 6 7 8 7 8 8 8 9 8 8 7 6 7 nan
nan 9 5 17 12 6 6 7 5 11 11 8 7 7 6 8 9 9 7 7 6 7 6 6 6 5 4 4 6 6 7 7 5 3 8 9 9 8 6 8 8 8 7 7 6 7 8 8 nan
nan 6 10 14 6 8 7 8 7 9 14 10 4 8 7 9 7 7 7 6 7 5 8 7 6 6 5 4 4 6 6 2 4 7 9 9 8 8 6 7 9 7 7 6 8 8 8 9 nan
nan 4 10 14 10 10 6 5 8 1 9 13 7 10 10 9 10 8 6 5 6 6 8 6 7 5 2 5 7 7 5 4 7 10 10 7 7 9 8 8 10 7 9 8 6 8 8 6 nan
nan 9 6 10 16 8 13 11 7 5 6 12 11 5 9 13 10 8 7 7 7 6 6 8 8 4 2 5 5 5 10 10 9 8 9 8 8 8 8 8 9 7 7 10 8 6 8 9 nan
nan 9 9 8 9 3 9 16 14 8 10 10 7 7 8 8 8 7 7 7 6 7 7 8 7 4 3 2 2 5 7 9 10 9 10 11 9 7 8 8 8 7 6 10 9 8 8 8 nan
nan 8 8 9 10 13 7 15 16 16 10 7 5 6 6 6 8 9 7 7 6 7 8 7 6 5 5 4 4 7 5 7 7 10 10 10 10 11 9 8 8 7 7 9 8 8 7 8 nan
nan 11 7 5 6 9 6 11 16 21 13 12 8 7 10 11 8 7 6 7 6 7 7 7 7 8 7 6 4 6 7 6 8 10 11 9 10 12 9 8 9 9 9 10 8 8 8 6 nan
nan 11 7 9 9 6 13 8 16 10 10 16 11 10 11 12 10 8 8 7 6 6 7 8 7 6 7 7 5 3 6 6 7 8 8 9 10 9 8 9 10 8 9 9 9 10 9 9 nan
nan 9 8 7 13 6 8 14 15 10 16 14 8 9 9 11 11 8 7 6 8 8 6 7 7 5 7 7 7 7 5 7 8 5 5 7 7 8 10 9 7 8 9 8 10 10 10 8 nan
nan 8 8 11 6 7 10 9 15 10 4 14 24 18 9 8 12 12 7 7 9 7 7 7 7 8 8 9 7 6 5 7 11 10 8 9 9 11 10 8 9 9 9 9 7 6 9 9 nan
nan 12 7 6 9 11 8 4 12 17 9 12 13 18 15 13 10 14 13 8 8 9 8 8 7 6 6 8 10 8 7 10 10 10 10 9 9 13 12 10 8 10 10 8 7 10 10 9 nan
nan 3 5 8 10 7 10 10 10 11 10 12 9 7 12 20 17 10 16 14 11 13 14 10 11 13 7 3 7 10 9 8 10 10 10 8 9 11 10 10 9 9 9 9 8 9 10 9 nan
nan 7 9 12 5 7 12 11 15 7 3 6 10 12 9 8 15 16 12 12 10 14 16 9 6 6 8 12 12 11 11 8 8 6 9 9 9 10 9 9 9 9 8 9 9 9 9 9 nan
nan nan nan nan nan nan nan nan nan nan nan nan nan nan nan nan nan nan nan nan nan nan nan nan nan nan nan nan nan nan nan nan nan nan nan nan nan nan nan nan nan nan nan nan nan nan nan nan nan
CAPE
0 0 0 0 0 0 0 0 0 0 144 236 249 174 165 496 799 762 275 33 0 3 1 777 1508 1646 1627 1492 1193 988 944 888 688 585 712 859 765 743 905 736 178 181 103 0 0 0 0 0 0
0 0 0 0 0 0 0 0 0 317 340 176 257 258 229 491 224 673 662 63 14 0 3 736 1075 1666 1653 1309 1070 1014 1005 831 637 692 819 821 809 831 896 629 272 276 149 0 0 0 0 0 9
0 0 0 0 0 0 0 0 0 156 226 264 189 575 715 262 156 455 279 93 786 941 549 989 1246 1510 1413 1184 982 924 877 637 639 808 941 952 1014 1011 961 732 392 407 203 0 0 0 0 0 6
0 0 0 0 0 0 0 8 56 161 165 68 532 564 331 359 836 726 132 891 615 803 805 947 1028 1246 1258 1119 957 884 661 541 729 887 1003 1215 1257 1177 1074 858 587 523 183 0 0 0 0 8 0
0 0 0 0 0 0 14 0 28 316 215 104 74 0 238 523 686 727 743 749 730 391 167 592 520 712 844 911 974 804 666 722 870 945 1168 1326 1435 1327 1158 1002 673 451 222 18 0 0 0 0 0
0 0 0 0 0 42 4 1 11 88 333 91 45 22 8 352 213 328 637 897 485 560 518 582 488 383 615 681 626 740 756 873 878 906 953 1139 1206 1229 1224 1090 677 435 262 222 112 34 0 0 0
0 0 0 0 0 40 3 0 22 52 213 28 42 55 50 339 203 224 504 373 213 424 368 190 388 458 353 239 402 675 746 801 803 804 713 657 670 781 950 885 650 451 320 189 106 53 0 0 0
0 0 0 0 0 25 1 50 0 67 295 49 46 306 129 274 203 174 327 289 246 240 77 12 40 78 162 164 187 505 629 613 516 452 330 259 329 530 618 571 427 331 251 178 83 0 0 0 0
0 0 0 0 0 7 6 75 12 0 444 334 573 518 309 319 203 150 198 205 111 78 9 0 0 24 92 89 306 613 681 369 262 222 182 39 15 37 120 281 324 319 228 145 56 0 0 0 0
0 0 0 0 0 0 27 41 3 19 0 21 376 434 453 222 38 40 15 17 114 50 4 4 2 5 3 38 275 330 253 67 104 68 15 16 40 60 102 197 260 245 190 94 27 0 0 0 0
0 0 0 0 0 0 0 24 0 0 0 60 46 369 298 5 1 2 3 1 3 2 1 21 4 4 9 12 32 122 39 80 29 29 32 90 87 57 26 40 66 78 52 2 0 0 0 0 0
0 0 0 0 0 0 2 53 258 329 568 572 299 259 269 6 2 3 2 2 1 2 1 0 0 1 0 10 19 18 34 50 42 81 78 94 37 27 49 39 7 0 0 0 0 0 0 0 0
0 0 0 0 0 0 3 24 103 264 361 259 426 177 182 1 1 5 2 2 2 2 1 1 0 0 0 0 0 14 66 60 117 117 123 135 65 43 68 64 2 0 0 0 0 0 0 0 0
0 0 0 0 0 0 0 0 1 87 332 284 180 58 14 1 2 5 2 3 3 2 2 0 0 0 0 0 0 0 2 12 97 146 168 213 200 126 93 55 13 0 0 0 0 0 0 0 0
0 0 0 0 0 0 0 0 0 0 0 224 117 10 8 5 0 3 2 2 1 4 4 3 1 0 0 0 0 0 0 0 0 5 31 117 190 227 125 129 60 11 0 0 0 0 0 0 0
0 0 0 0 0 0 0 0 0 0 0 0 0 16 21 2 0 0 1 2 1 1 1 3 2 0 0 0 0 0 0 0 0 0 111 110 116 203 197 48 21 1 0 0 0 0 0 0 0
0 0 0 0 1 0 0 0 5 0 0 0 0 7 22 10 0 0 0 0 0 0 3 2 0 0 0 0 0 0 0 0 0 0 2 144 87 278 148 105 14 0 0 0 0 0 0 0 0
0 0 0 0 0 5 4 2 0 0 2 0 0 44 41 4 0 0 0 0 0 0 1 0 0 0 0 0 0 0 0 0 0 0 0 145 152 176 213 99 19 0 0 0 0 0 0 0 0
0 0 0 0 2 9 104 26 0 0 0 0 0 0 64 10 0 0 0 0 0 0 0 0 0 0 0 0 0 0 0 0 12 0 98 0 0 134 175 73 1 0 0 0 0 0 0 0 0
0 0 0 0 2 0 1 46 0 0 5 0 0 0 0 14 0 0 0 0 0 0 0 0 0 0 0 0 0 0 0 0 0 4 1 2 13 101 76 11 0 0 0 0 0 0 0 0 0
0 0 0 0 1 2 0 0 10 18 77 0 0 0 0 0 0 0 0 0 0 0 0 0 0 0 0 0 0 0 0 0 0 0 35 16 180 139 64 5 0 0 0 0 0 0 0 0 0
0 0 0 0 0 0 0 0 120 172 186 62 0 0 0 0 0 0 0 0 0 0 0 0 0 0 0 0 0 0 0 0 0 0 78 164 177 96 39 8 0 0 0 0 0 0 0 0 0
0 0 0 0 0 0 0 0 0 248 120 87 45 0 0 0 0 0 0 0 0 0 0 0 0 0 0 0 0 0 0 0 0 0 71 81 108 82 4 0 0 0 0 0 0 0 0 0 0
0 1 0 0 0 0 0 0 0 73 11 138 63 84 0 0 8 0 0 0 0 0 0 0 0 0 0 0 1 22 8 0 4 29 59 65 63 5 0 0 0 0 0 0 0 0 0 0 0
0 1 0 0 0 0 13 18 6 0 1 139 57 160 51 0 36 1 0 0 0 0 0 0 0 0 0 0 12 19 37 14 44 86 75 27 4 0 0 0 0 0 0 0 0 0 0 0 0
0 0 0 0 0 0 0 1 4 0 0 0 2 219 128 23 0 29 18 0 0 0 0 0 0 0 0 7 9 49 65 53 21 42 44 40 0 0 0 0 0 0 0 0 0 0 0 0 0
0 0 0 4 0 0 0 0 0 0 0 0 0 0 53 124 11 0 11 13 2 1 7 53 62 43 61 120 197 199 226 207 55 18 2 8 0 0 0 0 0 0 0 0 0 0 0 0 0
0 0 18 24 7 0 29 3 17 0 0 0 0 0 0 0 63 7 0 22 51 63 84 7 111 149 104 168 301 321 340 87 77 27 20 0 0 0 0 0 0 0 0 0 0 0 0 0 0
0 0 0 15 6 4 0 0 0 3 0 0 0 0 3 41 20 12 25 84 27 337 414 228 121 163 137 107 271 456 298 84 4 36 13 0 0 0 0 0 0 0 0 0 0 0 0 0 0
0 0 0 0 0 6 0 0 0 0 0 0 0 0 0 0 11 2 75 33 0 223 364 276 337 357 267 185 369 571 250 58 1 54 75 5 0 0 0 0 0 0 0 0 0 0 0 0 0